| time (UTC) | temp C | wind direction | speed KPH | gust KPH | rain 1hr cm | rain 24hr cm | rain mn cm | humidity % | barometer mb |
| 20260504081545 | 8 | 30 | 29.0 | 41.8 | 0.00 | 0.00 | 0.00 | 57 | 1010.5 |
| 20260504044546 | 12 | 39 | 38.6 | 61.2 | 0.00 | 0.00 | 0.00 | 36 | 1005.9 |
| 20260504043046 | 13 | 32 | 29.0 | 46.7 | 0.00 | 0.00 | 0.00 | 40 | 1005.1 |
| 20260504041547 | 13 | 13 | 19.3 | 27.4 | 0.00 | 0.00 | 0.00 | 39 | 1004.7 |
| 20260504040056 | 13 | 36 | 17.7 | 27.4 | 0.00 | 0.00 | 0.00 | 38 | 1004.2 |
| 20260504034556 | 13 | 40 | 19.3 | 25.7 | 0.00 | 0.00 | 0.00 | 37 | 1003.9 |
| 20260504033116 | 14 | 30 | 24.1 | 29.0 | 0.00 | 0.00 | 0.00 | 36 | 1003.6 |
| 20260504031605 | 15 | 27 | 24.1 | 30.6 | 0.00 | 0.00 | 0.00 | 35 | 1003.4 |
| 20260504030004 | 15 | 42 | 19.3 | 25.7 | 0.00 | 0.00 | 0.00 | 33 | 1003.1 |
| 20260504024533 | 16 | 40 | 12.9 | 22.5 | 0.00 | 0.00 | 0.00 | 30 | 1003.0 |
| 20260504023055 | 16 | 21 | 22.5 | 30.6 | 0.00 | 0.00 | 0.00 | 28 | 1003.0 |
| 20260504021600 | 18 | 355 | 11.3 | 17.7 | 0.00 | 0.00 | 0.00 | 24 | 1002.8 |
| 20260504021502 | 18 | 5 | 11.3 | 17.7 | 0.00 | 0.00 | 0.00 | 23 | 1002.8 |
| 20260504020011 | 20 | 355 | 16.1 | 27.4 | 0.00 | 0.00 | 0.00 | 21 | 1003.0 |
| 20260504014513 | 21 | 344 | 22.5 | 30.6 | 0.00 | 0.00 | 0.00 | 19 | 1002.9 |
| 20260504013017 | 22 | 343 | 20.9 | 32.2 | 0.00 | 0.00 | 0.00 | 19 | 1002.9 |
| 20260504011516 | 22 | 335 | 24.1 | 38.6 | 0.00 | 0.00 | 0.00 | 19 | 1003.0 |
| 20260504010017 | 23 | 349 | 24.1 | 33.8 | 0.00 | 0.00 | 0.00 | 18 | 1003.1 |
| 20260504004537 | 23 | 346 | 25.7 | 38.6 | 0.00 | 0.00 | 0.00 | 18 | 1003.1 |
| 20260504003025 | 23 | 344 | 29.0 | 40.2 | 0.00 | 0.00 | 0.00 | 18 | 1003.3 |
| 20260504001526 | 23 | 333 | 32.2 | 41.8 | 0.00 | 0.00 | 0.00 | 17 | 1003.4 |
| 20260504000032 | 24 | 336 | 20.9 | 35.4 | 0.00 | 0.00 | 0.00 | 18 | 1003.4 |
| 20260503234538 | 24 | 333 | 16.1 | 37.0 | 0.00 | 0.00 | 0.00 | 18 | 1003.4 |
| 20260503233044 | 24 | 343 | 27.4 | 35.4 | 0.00 | 0.00 | 0.00 | 17 | 1003.5 |
| 20260503231553 | 25 | 313 | 24.1 | 37.0 | 0.00 | 0.00 | 0.00 | 17 | 1003.6 |
| 20260503230052 | 25 | 290 | 20.9 | 33.8 | 0.00 | 0.00 | 0.00 | 17 | 1003.6 |
| 20260503224552 | 25 | 343 | 22.5 | 32.2 | 0.00 | 0.00 | 0.00 | 18 | 1003.7 |
| 20260503223058 | 25 | 338 | 29.0 | 41.8 | 0.00 | 0.00 | 0.00 | 18 | 1004.0 |
| 20260503221600 | 25 | 311 | 29.0 | 38.6 | 0.00 | 0.00 | 0.00 | 18 | 1004.2 |
| 20260503221501 | 25 | 318 | 22.5 | 37.0 | 0.00 | 0.00 | 0.00 | 18 | 1004.2 |
| 20260503220004 | 25 | 321 | 27.4 | 35.4 | 0.00 | 0.00 | 0.00 | 18 | 1004.4 |
| 20260503214505 | 24 | 306 | 14.5 | 38.6 | 0.00 | 0.00 | 0.00 | 18 | 1004.5 |
| 20260503213016 | 25 | 323 | 24.1 | 38.6 | 0.00 | 0.00 | 0.00 | 17 | 1004.7 |
| 20260503211515 | 24 | 315 | 20.9 | 32.2 | 0.00 | 0.00 | 0.00 | 17 | 1005.1 |
| 20260503210019 | 24 | 300 | 24.1 | 33.8 | 0.00 | 0.00 | 0.00 | 17 | 1005.3 |
| 20260503204524 | 24 | 313 | 30.6 | 37.0 | 0.00 | 0.00 | 0.00 | 17 | 1005.5 |
| 20260503203029 | 24 | 321 | 25.7 | 38.6 | 0.00 | 0.00 | 0.00 | 17 | 1005.8 |
| 20260503201536 | 23 | 305 | 17.7 | 37.0 | 0.00 | 0.00 | 0.00 | 17 | 1005.8 |
| 20260503200040 | 23 | 331 | 22.5 | 35.4 | 0.00 | 0.00 | 0.00 | 17 | 1005.9 |
| 20260503194549 | 22 | 237 | 16.1 | 37.0 | 0.00 | 0.00 | 0.00 | 17 | 1006.1 |
| 20260503193049 | 23 | 293 | 20.9 | 32.2 | 0.00 | 0.00 | 0.00 | 19 | 1006.4 |
| 20260503191545 | 22 | 298 | 17.7 | 38.6 | 0.00 | 0.00 | 0.00 | 18 | 1006.5 |
| 20260503190056 | 23 | 292 | 16.1 | 35.4 | 0.00 | 0.00 | 0.00 | 20 | 1006.8 |
| 20260503184607 | 22 | 239 | 17.7 | 37.0 | 0.00 | 0.00 | 0.00 | 21 | 1007.0 |
| 20260503183103 | 22 | 267 | 30.6 | 40.2 | 0.00 | 0.00 | 0.00 | 20 | 1007.2 |
| 20260503183001 | 22 | 293 | 27.4 | 40.2 | 0.00 | 0.00 | 0.00 | 21 | 1007.2 |
| 20260503181506 | 22 | 310 | 20.9 | 37.0 | 0.00 | 0.00 | 0.00 | 21 | 1007.5 |
| 20260503180012 | 22 | 253 | 16.1 | 30.6 | 0.00 | 0.00 | 0.00 | 23 | 1007.7 |
| 20260503174517 | 22 | 290 | 16.1 | 27.4 | 0.00 | 0.00 | 0.00 | 23 | 1007.7 |
| 20260503173022 | 22 | 273 | 17.7 | 37.0 | 0.00 | 0.00 | 0.00 | 23 | 1007.9 |
| 20260503171523 | 20 | 276 | 14.5 | 27.4 | 0.00 | 0.00 | 0.00 | 32 | 1008.1 |
| 20260503100128 | 7 | 265 | 19.3 | 24.1 | 0.00 | 0.00 | 0.00 | 73 | 1010.6 |